Showing default

AFR-1, 56964

Orbit data source: Space-Track

AFR-1, 56964 is a payload satellite owned by Azista BST (IN) in SSO that was launched on Mon, 12 Jun 2023 UTC via an FALCON 9 launch vehicle from the Air Force Western Test Range (AFWTR). Payload-class satellites include a variety of spacecraft equipped with specific instruments for various scientific and technological missions. These include communications satellites like Starlink; space stations such as the ISS; scientific satellites like the Hubble; Earth observation satellites from companies like Planet Labs, Umbra, and HawkEye 360; GPS; miniature CubeSats for education and research; and military/defense satellites.

Loading next visibility...
Identifier
56964, 2023-084AJ
Orbit
SSO
Last TLE update
10 hours ago
Origin
Manufacturer
Azista BST
Mission
Operational Commercial Imaging
Bus & Motor
AFR, Unknown motor
Mass
80 kg wet, 80 kg dry
Launch date (UTC)
2023-06-12 (2 years ago)
Launch vehicle
FALCON 9
Launch site
Air Force Western Test Range (AFWTR)
Object type
Payload
Rocket body
Debris
Shape & HBR
Box + 1 Pan, 0.5 m
Radar Cross Section
1.100 m², Medium (>0.1 m² and < 1m²)

Expand to show TLE details & history

TLE from 10 hours ago
0 AFR-1
1 56964U 23084AJ  25199.57838025  .00003616  00000-0  15083-3 0  9997
2 56964  97.5846 325.2783 0012992  74.6443 285.6229 15.24273605116335
Epoch: 2025-07-18T13:52Z
TLE epoch observation values (Epoch: 2025-07-18T13:52:52.053Z)
Latitude
0.00001°
Longitude
-179.56642°
Altitude
493.665 km
Speed
7.619 km/s
True Right ascension
21h 41m 06s
True Declination
0° 00' 00"
Sunlit
Object was in full shadow at epoch
Visualization orbit readout
Latitude
41.89794°
Longitude
174.01672°
Altitude
491.491 km
Speed
7.628 km/s
Apparent Right ascension
22h 44m 56s
Apparent Declination
3° 04' 02"
Sunlit
Object is in full shadow
Visualization observer readout
Local Sidereal Time
12:18:43
Azimuth
32.283° NE
Elevation
-41.937°
Doppler factor
1
Orbital elements
Apogee altitude
498.858 km
Perigee altitude
481.012 km
Semi-major axis
6,868.072 km
Eccentricity
0.0013
Inclination
97.5846°
RAAN
325.2783°
Arg. of periapsis
74.6443°
True anomaly
285.47946°
Mean anomaly
285.6229°
Eccentric anomaly
285.55119°
Mean motion
3.81321 °/min
Orbital period
94.41 mins
BSTAR
0.00015083
Loading maneuver chart data...
Loading SW <> Apogee altitude chart data...
Loading historical data...
Loading historical data...
Loading historical data...
Loading historical data...
Loading historical data...
Loading historical data...
Loading historical data...
|